GW1347 Weather Reports


Display with metric or nautical units.
time (UTC)temp
F
wind
direction
speed
MPH
gust
MPH
rain 1hr
in
rain 24hr
in
rain mn
in
humidity
%
barometer
mb
20260906050432 76 339 0.0 4.0 0.00 0.00 0.00 84 1014.0
20260906045417 78 5 1.0 5.0 0.00 0.00 0.00 82 1013.9
20260906044402 77 24 2.0 5.0 0.00 0.00 0.00 82 1013.8
20260906043350 78 18 1.0 5.0 0.00 0.00 0.00 80 1013.7
20260906041140 78 18 2.0 6.0 0.00 0.00 0.00 80 1013.4
20260906040151 78 359 3.0 6.0 0.00 0.00 0.00 79 1013.3
20260906035131 78 356 3.0 5.0 0.00 0.00 0.00 78 1013.3
20260906034142 79 30 3.0 6.0 0.00 0.00 0.00 77 1013.3
20260906033131 79 37 4.0 7.0 0.00 0.00 0.00 76 1013.4
20260906032113 80 35 3.0 7.0 0.00 0.00 0.00 75 1013.3
20260906031106 80 26 3.0 8.0 0.00 0.00 0.00 74 1013.4
20260906030051 80 23 3.0 8.0 0.00 0.00 0.00 72 1013.4
20260906025017 80 51 4.0 8.0 0.00 0.00 0.00 72 1013.2
20260906024022 81 16 4.0 8.0 0.00 0.00 0.00 72 1013.2
20260906023007 81 359 4.0 9.0 0.00 0.00 0.00 72 1013.2
20260906021950 82 82 4.0 9.0 0.00 0.00 0.00 72 1013.2
20260906020923 83 147 2.0 10.0 0.00 0.00 0.00 71 1013.1
20260906013616 84 8 4.0 9.0 0.00 0.00 0.00 70 1012.5
20260906012630 85 43 5.0 13.0 0.00 0.00 0.00 71 1012.5
20260906011621 85 8 5.0 13.0 0.00 0.00 0.00 69 1012.3
20260906010606 86 26 1.0 6.0 0.00 0.00 0.00 73 1012.1
20260906005617 86 316 0.0 0.0 0.00 0.00 0.00 73 1011.9
20260906004549 87 316 0.0 0.0 0.00 0.00 0.00 72 1011.6
20260906003534 88 317 0.0 1.0 0.00 0.00 0.00 71 1011.4
20260906002532 89 279 0.0 2.0 0.00 0.00 0.00 69 1011.4
20260906001556 89 13 0.0 2.0 0.00 0.00 0.00 68 1011.5
20260906000607 89 309 0.0 2.0 0.00 0.00 0.00 69 1011.5
20260905235613 90 328 0.0 1.0 0.00 0.00 0.00 68 1011.5
20260905234557 92 318 0.0 1.0 0.00 0.00 0.00 64 1011.6
20260905233553 93 297 0.0 1.0 0.00 0.00 0.00 63 1011.6
20260905232519 94 347 0.0 1.0 0.00 0.00 0.00 62 1011.6
20260905230358 93 359 0.0 1.0 0.00 0.00 0.00 61 1012.0
20260905225351 93 325 0.0 1.0 0.00 0.00 0.00 61 1011.6
20260905224354 93 323 0.0 1.0 0.00 0.00 0.00 58 1011.5
20260905223351 93 1 0.0 1.0 0.00 0.00 0.00 58 1011.3
20260905222337 93 322 0.0 1.0 0.00 0.00 0.00 57 1011.2
20260905221345 93 345 0.0 1.0 0.00 0.00 0.00 57 1011.1
20260905220322 94 305 0.0 2.0 0.00 0.00 0.00 56 1011.4
20260905214151 94 302 0.0 8.0 0.00 0.00 0.00 56 1011.5
20260905213214 95 330 2.0 8.0 0.00 0.00 0.00 54 1011.5
20260905212218 96 302 1.0 4.0 0.00 0.00 0.00 52 1011.5
20260905211147 97 37 1.0 1.0 0.00 0.00 0.00 50 1011.4
20260905210129 97 294 0.0 4.0 0.00 0.00 0.00 50 1011.7
20260905205102 97 326 1.0 4.0 0.00 0.00 0.00 50 1011.8
20260905202936 97 254 1.0 3.0 0.00 0.00 0.00 51 1012.0
20260905201921 97 295 2.0 4.0 0.00 0.00 0.00 50 1012.2
20260905200922 97 290 1.0 9.0 0.00 0.00 0.00 48 1012.3
20260905195927 96 358 3.0 9.0 0.00 0.00 0.00 49 1012.4
20260905194930 98 239 1.0 4.0 0.00 0.00 0.00 47 1012.5
20260905192810 95 271 2.0 6.0 0.00 0.00 0.00 49 1012.6
20260905191833 95 241 1.0 6.0 0.00 0.00 0.00 49 1012.7
20260905190824 95 232 3.0 9.0 0.00 0.00 0.00 48 1012.8
20260905185756 94 272 3.0 9.0 0.00 0.00 0.00 50 1013.0
20260905184818 93 257 4.0 9.0 0.00 0.00 0.00 50 1013.1
20260905183819 93 264 3.0 7.0 0.00 0.00 0.00 50 1013.3
20260905182824 93 283 3.0 7.0 0.00 0.00 0.00 50 1013.4
20260905181827 93 240 3.0 9.0 0.00 0.00 0.00 48 1013.5
20260905180816 93 225 4.0 9.0 0.00 0.00 0.00 49 1013.5
20260905175836 93 146 4.0 8.0 0.00 0.00 0.00 47 1013.5
20260905174810 92 264 3.0 9.0 0.00 0.00 0.00 48 1013.8
20260905173821 92 148 2.0 9.0 0.00 0.00 0.00 48 1013.9
20260905172836 92 143 3.0 7.0 0.00 0.00 0.00 49 1013.9
20260905171840 91 217 3.0 8.0 0.00 0.00 0.00 50 1014.2
20260905170847 90 191 4.0 9.0 0.00 0.00 0.00 50 1014.3
20260905165852 88 241 4.0 12.0 0.00 0.00 0.00 53 1014.5
20260905164851 88 250 4.0 12.0 0.00 0.00 0.00 54 1014.7
20260905161603 87 150 4.0 13.0 0.00 0.00 0.00 54 1014.6
20260905160542 86 141 5.0 13.0 0.00 0.00 0.00 56 1014.7
20260905155517 84 241 5.0 10.0 0.00 0.00 0.00 57 1014.9
20260905154455 84 333 3.0 9.0 0.00 0.00 0.00 57 1015.0
20260905153514 84 206 4.0 9.0 0.00 0.00 0.00 57 1014.8
20260905152523 85 226 4.0 9.0 0.00 0.00 0.00 55 1014.9
20260905151520 86 142 3.0 10.0 0.00 0.00 0.00 53 1015.0
20260905150532 84 219 4.0 10.0 0.00 0.00 0.00 55 1015.1
20260905144347 83 212 5.0 11.0 0.00 0.00 0.00 57 1015.0
20260905143326 83 127 5.0 12.0 0.00 0.00 0.00 58 1015.1
20260905142346 82 237 5.0 12.0 0.00 0.00 0.00 59 1015.5
20260905140216 81 220 4.0 9.0 0.00 0.00 0.00 62 1015.6
20260905135155 81 107 4.0 13.0 0.00 0.00 0.00 62 1015.6
20260905131908 79 103 4.0 11.0 0.00 0.00 0.00 67 1015.8
20260905130930 78 125 5.0 10.0 0.00 0.00 0.00 68 1015.9
20260905125908 78 308 6.0 15.0 0.00 0.00 0.00 68 1016.1
20260905124904 77 135 6.0 15.0 0.00 0.00 0.00 70 1015.7
20260905123920 77 127 4.0 9.0 0.00 0.00 0.00 71 1016.0
20260905122851 77 117 4.0 10.0 0.00 0.00 0.00 73 1015.8
20260905121848 76 77 4.0 11.0 0.00 0.00 0.00 75 1015.9
20260905120852 76 111 5.0 12.0 0.00 0.00 0.00 77 1016.1
20260905115829 76 102 5.0 13.0 0.00 0.00 0.00 76 1015.9
20260905114804 76 126 5.0 14.0 0.00 0.00 0.00 76 1015.9
20260905113756 76 142 7.0 20.0 0.00 0.00 0.00 78 1015.8
20260905112734 76 89 8.0 20.0 0.00 0.00 0.00 81 1015.6
20260905110702 77 70 0.0 3.0 0.00 0.00 0.00 91 1014.3
20260905105719 77 345 0.0 0.0 0.00 0.00 0.00 91 1013.9
20260905103501 77 345 0.0 0.0 0.00 0.00 0.00 90 1013.6
20260905101400 78 345 0.0 0.0 0.00 0.00 0.00 90 1013.7
20260905100422 78 345 0.0 0.0 0.00 0.00 0.00 90 1013.8
20260905094325 78 75 0.0 0.0 0.00 0.00 0.00 90 1013.6
20260905093341 78 75 0.0 0.0 0.00 0.00 0.00 89 1013.6
20260905090118 78 75 0.0 0.0 0.00 0.00 0.00 89 1013.5
20260905085110 78 75 0.0 0.0 0.00 0.00 0.00 88 1013.4
20260905084131 79 75 1.0 3.0 0.00 0.00 0.00 88 1013.3
20260905083101 79 242 0.0 3.0 0.00 0.00 0.00 87 1013.3
20260905082033 79 146 0.0 1.0 0.00 0.00 0.00 88 1013.2
20260905081053 79 156 1.0 3.0 0.00 0.00 0.00 88 1013.2
20260905080033 79 32 1.0 3.0 0.00 0.00 0.00 89 1013.0
20260905075046 79 224 1.0 0.0 0.00 0.00 0.00 89 1012.9
20260905074030 78 245 1.0 3.0 0.00 0.00 0.00 90 1012.9
20260905073045 79 238 0.0 0.0 0.00 0.00 0.00 90 1012.9
20260905072048 78 206 0.0 0.0 0.00 0.00 0.00 90 1013.1
20260905071040 78 206 0.0 0.0 0.00 0.00 0.00 90 1013.1
20260905070105 78 206 0.0 0.0 0.00 0.00 0.00 88 1013.2
20260905065125 79 206 0.0 0.0 0.00 0.00 0.00 88 1013.4
20260905064053 79 206 0.0 0.0 0.00 0.00 0.00 89 1013.5
20260905063046 80 206 0.0 0.0 0.00 0.00 0.00 87 1013.7
20260905062050 80 206 0.0 0.0 0.00 0.00 0.00 88 1013.8
20260905055838 81 206 0.0 0.0 0.00 0.00 0.00 84 1014.0
20260905054858 80 206 0.0 0.0 0.00 0.00 0.00 86 1014.0
20260905053920 81 206 0.0 2.0 0.00 0.00 0.00 84 1013.8
20260905052900 81 176 0.0 1.0 0.00 0.00 0.00 83 1014.0